Погода в Надыме

Погода в Надыме : погода сейчас, прогноз погоды и архив. Всё, что Вы хотите узнать о погоде в Надыме!

Поиск расширенной информации на нашем сайте:

Другие новости

Новости СМИ2

Главная страница сайта

Новости сайта

03.07.2017

Напоминаем, что на нашем специализированном сайте Метеоцентр.Азия вы можете получить высокодетализированные автоматические прогнозы погоды по пунктам России, СНГ и мира в авиационном формате (включающие направление и скорость ветра, видимость, явления погоды, количество и форму облачности, нижнюю и верхнюю границу облачности).

Рекомендуем: полезная сауна турецкая цена любовная

Погода в Надыме - сегодня

Время (UTC), дата Ветер
(°,м/с) 
Видим.   Явления Облачность Т
(°С)
Тd
(°С)
f(%) Тe
(°С)
Pmin
(гПа)
dP
(гПа)
Po
(мм)
O2
(г/м3)
Тmin Tmax R s Состояние
почвы
06 16.08.18 240 (ЮЗ) 10 км    6/6 1000 м 
[Cu med, cong]
+15.9 +6.6 54 +17  1008.8  0.1  755  287           
09 16.08.18 270 (З) 10 км    10/5 1000 м средняя, верхняя 
[Cu med, cong|Ac trans|Ci fib]
+19.2 +5.4 40 +20  1009  0.2  755  284           
12 16.08.18 260 (З) 10 км    9/3 1000 м средняя 
[Sc|Ac trans]
+16.7 +6.1 50 +18  1009.1  0.1  756  286           
15 16.08.18 270 (З) 10 км    8/3 1000 м средняя 
[Sc|Ac trans]
+12.7 +8.6 76 +14  1009.2  0.1  756  289    +19.5       
18 16.08.18 220 (ЮЗ) 10 км    8/6 1500 м средняя 
[Sc|Ac trans]
+9.2 +6.7 84 +10  1009.4  0.2  756  293           
21 16.08.18 200 (Ю) 10 км    6/0 средняя 
[Ac trans]
+5.8 +4.8 93 +7  1009.4  0.1  756  297           
00 17.08.18 230 (ЮЗ) 10 км    8/8 1500 м средняя 
[Ac trans]
+7.8 +6.2 90 +9  1009.5  0.2  756  295           
03 17.08.18 270 (З) 20000 м    ясно 
+13.7 +7.9 68 +15  1009.9  0.5  756  289  +5.8         
06 17.08.18 240 (ЮЗ) 20000 м    6/6 1000 м 
[Cu hum]
+17.5 +7 50 +19  1009.7  -0.2  756  285           
09 17.08.18 360 (С) 10 км    9/6 1000 м кучево-дожд., средняя 
[Cb cap|Ac trans]
+15.6 +7.5 58 +17  1010  0.3  756  287           
12 17.08.18 320 (СЗ) 10 км    9/0 средняя 
[Ac trans]
+14.4 +9.2 71 +15  1010.5  0.5  757  288           
15 17.08.18 300 (СЗ) 10 км    8/3 600 м средняя 
[Cu med, cong|Ac trans]
+12.1 +8.9 81 +12  1011.1  0.6  757  291    +17.5       
18 17.08.18 270 (З) 10 км    8/0 средняя 
[Ac trans]
+10.6 +8.7 88 +12  1011.5  0.4  757  292           
21 17.08.18 270 (З) 10 км    6/0 средняя 
[Ac trans]
+7.2 +6.5 95 +8  1011.7  0.2  758  296           
00 18.08.18 тихо ()   10 км    10/8 300 м средняя 
[St|Ac trans]
+6.8 +6.5 98 +7  1012.3  0.6  758  297           
03 18.08.18 340 (С) 2000 м  в посл. час туман  10/10 50 м 
[St]
+9.9 +9 94 +11  1013  0.7  758  293  +6         
06 18.08.18 360 (С) 10 км  {туман}  10/4 300 м средняя 
[Sc|Ac und]
+13.6 +9.8 78 +15  1013.3  0.3  759  289           
09 18.08.18 360 (С) 10 км  слаб. ливневой дождь  10/5 600 м кучево-дожд., средняя 
[Cb cap|Ac und]
+12.9 +11 88 +16  1013.9  0.6  759  290           
15 18.08.18 330 (СЗ) 10 км    6/0 средняя 
[Ac trans]
+12.5 +9.5 82 +13  1015.3  1.1  760  291    +15  0.9     
18 18.08.18 350 (С) 10 км    ясно 
+9.4 +6.9 84 +9  1016.4  1.1  761  295           
21 18.08.18 290 (З) 10 км    4/4 1000 м 
[Sc]
+5.5 +4.8 95 +6  1016.9  0.5  761  300           
00 19.08.18 290 (З) 10 км    9/9 1000 м 
[Sc]
+7 +6.2 95 +8  1017.4  0.5  762  298           
03 19.08.18 320 (СЗ) 10 км    10/10 300 м кучево-дожд. 
[Cb cap]
+10.4 +7.6 83 +12  1017.6  0.2  762  294  +4.7         
06 19.08.18 320 (СЗ) 10 км    10/10 300 м кучево-дожд. 
[Cb cap]
+12.5 +7.5 72 +13  1017.3  -0.3  762  292           
09 19.08.18 250 (З) 10 км    10/9 1000 м 
[Sc]
+14.3 +7.6 64 +16  1016.6  -0.7  761  290           
Время (UTC), дата Ветер
(°,м/с) 
Видим.   Явления Облачность Т
(°С)
Тd
(°С)
f(%) Тe
(°С)
Pmin
(гПа)
dP
(гПа)
Po
(мм)
O2
(г/м3)
Тmin Tmax R s Состояние
почвы

Для получения пояснительной информации подведите курсор к названию столбца.

ПОГОДА в Надыме - архив

Всё, что Вы хотите узнать о погоде в Надыме - удобно и подробно!

Выберите нужную дату (начиная с 1 января 2015* года) и нажмите кнопку "Найти".
Будут отображены архивные сводки погоды по пункту Надым, начиная с указанной даты.


Отображать данные в формате CSV (для использования в таблицах Excel)


Внимание! Наш архив погоды предназначен исключительно для личного некоммерческого использования в познавательных целях. Если Вам необходимы официальные справки о состоянии погоды (для производственных, юридических, коммерческих и т.п. целей), обращайтесь в органы Росгидромета.

*Примечание: данная дата относится к архиву по метеостанциям СССР (Россия, СНГ, Балтия).
Архив по метеостанциям Зарубежной Европы и Азии (кроме Китая) хранится 10 дней, по другим регионам земного шара (Китай, Африка, Америка, Австралия, Океания) - 1 день.

Надым - район местоположения метеостанции


Название, широта, долгота, высота метеостанции:
Надым 65.6°ш. 72.7°д. 12 м над ур. моря [Российская Федерация]

Дополнительная информация

В oтличие oт бoльшинства пoгoдных сайтoв мы публикуем пoдрoбную метеoинфoрмацию в детальнoм прoфессиoнальнoм фoрмате.

Характеристики температуры и влажнoсти вoздуха измеряются на высoте 2 м в тени вдали oт зданий и деревьев.
Скoрoсть ветра измеряется на высoте 10 м (на урoвне рoста челoвека скoрoсть ветра ниже в 1.5-2 раза). Если метеoстанция нахoдится в гoрoде или в лесу, тo скoрoсть ветра занижена на 2-4 м/с пo сравнению с oткрытым местoм. Скoрoсть ветра над акватoриями крупных рек и oзёр, а также на вершинах хoлмoв на 2-5 м/с выше, чем в oбычных услoвиях.
Атмoсфернoе давление в разных тoчках местнoсти мoжет значительнo oтличаться oт давления на метеoстанции, в зависимoсти oт услoвий рельефа (при пoдъёме на 10 м давление пoнижается примернo на 1 мм рт.ст.).